Content
SEND FEEDBACK

Daily
Averages
Monthly
Summary
France

LE HAVRE, FRANCE


Home > Europe > France
Elevation: 338 feet     Latitude: 49 31N     Longitude: 000 04E

WEATHER
 
SELECT A DAY
Number of Records: 183,666;   Date Range: 3/4/97 - 10/21/14
 
SHARE

PRINT THIS DATA

[ ← Previous Day ]
WEATHER ALMANAC - MARCH 14, 2013
[ Next Day → ]
[ °C ]   °F
Weather ElementAverageHighLow
Temperature35.7 °F41 °F (1:30 pm)30.2 °F (1:00 am)
Dewpoint27.5 °F32 °F (5:30 am)24.8 °F (2:30 pm)
Humidity73.6 %100 % (7:30 am)56 % (2:30 pm)
Barometer29.98 in30.04 in (1:00 pm)29.92 in (12:30 am)
Wind Speed6.9 mph11.5 mph (12:30 pm)
Weather ElementAverage
Visibility4.8 mi
Wind DirectionS (184.5 °)

Weather ElementTotal
Precipitation---
Heating Degree Days29.4 (Base 65)
Averaged from 47 records on March 14, 2013
WEATHER CONDITIONS BREAKOUT
WIND DIRECTION BREAKOUT
WEATHER BY HOUR - MARCH 14, 2013
[ °C ]   °F
Local TimeTemperatureDewpointHumidityBarometerVisibilityWind DirectionWind SpeedGust SpeedPrecipitationEventsConditions
12:30 AM32.0 °F28.4 °F87 %29.92 in6.2 miENE (70°)2.3 mphPartly Cloudy
1:00 AM30.2 °F26.6 °F86 %29.92 in3.1 miEast (80°)2.3 mphMostly Cloudy
1:30 AM30.2 °F28.4 °F93 %29.92 in0.5 miEast (80°)2.3 mphFogLight Freezing Fog
2:00 AM33.8 °F30.2 °F87 %29.92 in6.2 miENE (60°)5.8 mphMostly Cloudy
2:30 AM32.0 °F28.4 °F87 %29.92 inCalmMostly Cloudy
3:00 AM32.0 °F28.4 °F87 %29.92 in1.9 miNNE (20°)4.6 mphScattered Clouds
3:30 AM32.0 °F28.4 °F87 %29.92 inNNE (30°)5.8 mphMostly Cloudy
4:00 AM32.0 °F28.4 °F87 %29.92 in6.2 miEast (80°)2.3 mphMostly Cloudy
4:30 AM32.0 °F30.2 °F93 %29.92 inESE (110°)3.5 mphMostly Cloudy
5:00 AM32.0 °F30.2 °F93 %29.92 in1.7 miVariable1.2 mphMostly Cloudy
5:30 AM33.8 °F32.0 °F93 %29.92 in6.2 miNorth (350°)9.2 mphRain-SnowLight Snow
6:00 AM33.8 °F32.0 °F93 %29.95 in6.2 miNNE (30°)8.1 mphMostly Cloudy
6:30 AM32.0 °F30.2 °F93 %29.95 in6.2 miENE (70°)3.5 mphMostly Cloudy
7:00 AM32.0 °F30.2 °F93 %29.95 in6.2 miENE (60°)2.3 mphScattered Clouds
7:30 AM30.2 °F30.2 °F100 %29.95 in6.2 miNNE (30°)3.5 mphMostly Cloudy
8:00 AM32.0 °F30.2 °F93 %29.95 in6.2 miNE (50°)6.9 mphMostly Cloudy
8:30 AM33.8 °F30.2 °F87 %29.98 in6.2 miNE (50°)4.6 mphScattered Clouds
9:00 AM35.6 °F28.4 °F75 %29.98 in6.2 miNE (40°)6.9 mph
9:30 AM37.4 °F28.4 °F70 %29.98 in6.2 miNNE (30°)6.9 mphPartly Cloudy
10:00 AM37.4 °F28.4 °F70 %29.98 in6.2 miNNE (30°)8.1 mph
10:30 AM35.6 °F26.6 °F70 %30.01 in6.2 miNorth (10°)9.2 mphPartly Cloudy
11:00 AM37.4 °F26.6 °F65 %30.01 in6.2 miNNE (20°)10.4 mphPartly Cloudy
11:30 AM39.2 °F28.4 °F65 %30.01 in6.2 miNNE (20°)8.1 mphPartly Cloudy
12:00 PM39.2 °F26.6 °F61 %30.01 in6.2 miNorth (360°)10.4 mphMostly Cloudy
12:30 PM39.2 °F28.4 °F65 %30.01 inNorth (350°)11.5 mphMostly Cloudy
1:00 PM39.2 °F26.6 °F61 %30.04 in6.2 miNorth (10°)10.4 mphPartly Cloudy
1:30 PM41.0 °F26.6 °F57 %30.01 in6.2 miNorth (360°)9.2 mphPartly Cloudy
2:00 PM39.2 °F26.6 °F61 %30.01 in6.2 miNorth (360°)9.2 mphMostly Cloudy
2:30 PM39.2 °F24.8 °F56 %30.01 in6.2 miNorth (350°)10.4 mphPartly Cloudy
3:00 PM39.2 °F26.6 °F61 %30.01 in6.2 miNorth (350°)10.4 mphPartly Cloudy
3:30 PM41.0 °F26.6 °F57 %30.01 inNorth (350°)10.4 mphPartly Cloudy
4:00 PM39.2 °F26.6 °F61 %30.01 inNNW (330°)10.4 mphScattered Clouds
4:30 PM39.2 °F24.8 °F56 %30.01 in6.2 miNNW (340°)9.2 mph
5:00 PM39.2 °F26.6 °F61 %30.01 inNNW (340°)9.2 mphScattered Clouds
5:30 PM39.2 °F26.6 °F61 %30.01 inNNW (330°)6.9 mphScattered Clouds
6:00 PM37.4 °F24.8 °F60 %30.01 in0.9 miNNW (330°)8.1 mphScattered Clouds
6:30 PM37.4 °F24.8 °F60 %30.01 in0.7 miNW (320°)8.1 mphPartly Cloudy
7:00 PM37.4 °F24.8 °F60 %30.01 in6.2 miNW (310°)5.8 mphScattered Clouds
7:30 PM35.6 °F24.8 °F65 %30.04 inWNW (300°)5.8 mphPartly Cloudy
8:00 PM35.6 °F24.8 °F65 %30.04 in0.6 miWNW (300°)6.9 mphPartly Cloudy
8:30 PM35.6 °F24.8 °F65 %30.04 inWNW (290°)8.1 mphPartly Cloudy
9:00 PM35.6 °F24.8 °F65 %30.04 in6.2 miWNW (290°)6.9 mphPartly Cloudy
9:30 PM35.6 °F26.6 °F70 %30.04 in6.2 miWNW (300°)6.9 mph
10:00 PM37.4 °F26.6 °F65 %30.04 in0.3 miWest (280°)6.9 mphPartly Cloudy
10:30 PM35.6 °F26.6 °F70 %30.01 in1.6 miWest (280°)8.1 mphMist
11:00 PM35.6 °F26.6 °F70 %30.01 in6.2 miWest (260°)6.9 mph
11:30 PM35.6 °F26.6 °F70 %30.01 in0.6 miWest (260°)8.1 mph
Hourly data recorded from LFOH, located miles away from Le Havre, France







STORIES FROM OUR PARTNERS